Location: Narrabri
(30.3170°S, 149.7830°E)
Time: 03:21:23
(UTC+11:00)

Hubble Space Telescope - Visible Passes

Search period start: 15 November 2018 00:00
Search period end: 25 November 2018 00:00
Orbit: 537 x 540 km, 28.5° (Epoch: 13 November)

Date Brightness Start Highest point End Pass type
(mag) Time Alt. Az. Time Alt. Az. Time Alt. Az.
15 Nov 3.6 03:04:40 12° E 03:04:40 12° E 03:05:01 10° E visible
15 Nov 0.7 04:40:01 28° WNW 04:42:06 69° N 04:46:15 10° E visible
16 Nov 0.7 04:30:07 36° WNW 04:31:42 68° N 04:35:50 10° E visible
17 Nov 0.7 04:20:18 47° WNW 04:21:17 66° N 04:25:25 10° ENE visible
18 Nov 0.7 04:10:35 60° NNW 04:10:51 61° N 04:14:58 10° ENE visible
19 Nov 1.1 04:00:59 51° NNE 04:00:59 51° NNE 04:04:31 10° ENE visible
20 Nov 2.0 03:51:35 31° NE 03:51:35 31° NE 03:54:02 10° ENE visible
21 Nov 2.9 03:42:22 17° NE 03:42:22 17° NE 03:43:30 10° ENE visible
21 Nov 2.5 05:17:48 10° WNW 05:20:20 16° NNW 05:22:53 10° NNE visible
22 Nov 2.7 05:08:47 11° NW 05:09:49 12° NNW 05:11:32 10° N visible
23 Nov 2.7 20:22:34 10° N 20:24:20 12° NNE 20:25:28 11° NE visible
24 Nov 2.5 20:11:15 10° NNW 20:13:48 16° NNE 20:16:22 10° ENE visible
24 Nov 2.7 21:50:38 10° WNW 21:52:00 19° NW 21:52:00 19° NW visible
